When you browse on this site, cookies collect data to enhance your experience and personalize the content and advertising you see.
Visit our Privacy Policy to learn more. By continuing to use the site, you agree to this use of cookies and data.
  • In Netherlands
  • List of Countries
  • For 7 days
  • Water Temperature
  • Weather Map
  • Weather Widgets
  • user-avatar
    Login

    Hourly Weather Abovyan

    Today, 5 June, Friday

    Time Temperature Precipitation Wind Pressure Humidity
    00:00 +17°C° 0 mm 2 mps 672 mmHg 44%
    01:00 +17°C° 0 mm 2 mps 672 mmHg 45%
    02:00 +17°C° 0 mm 2 mps 672 mmHg 46%
    03:00 +16°C° 0 mm 2 mps 671 mmHg 48%
    04:00 +17°C° 0 mm 2 mps 672 mmHg 49%
    05:00 +19°C° 0 mm 1 mps 672 mmHg 50%
    06:00 +20°C° 0 mm 1 mps 673 mmHg 52%
    07:00 +20°C° 0 mm 2 mps 673 mmHg 46%
    08:00 +23°C° 0 mm 2 mps 673 mmHg 40%
    09:00 +25°C° 0 mm 3 mps 673 mmHg 33%
    10:00 +26°C° 0 mm 3 mps 673 mmHg 31%
    11:00 +26°C° 0 mm 4 mps 674 mmHg 29%
    12:00 +27°C° 0 mm 5 mps 674 mmHg 27%
    13:00 +27°C° 0 mm 4 mps 674 mmHg 27%
    14:00 +27°C° 0 mm 4 mps 673 mmHg 27%
    15:00 +27°C° 0 mm 4 mps 673 mmHg 28%
    16:00 +27°C° 0 mm 3 mps 673 mmHg 30%
    17:00 +26°C° 0 mm 3 mps 674 mmHg 33%
    18:00 +26°C° 0 mm 3 mps 674 mmHg 35%
    19:00 +24°C° 0 mm 3 mps 674 mmHg 38%
    20:00 +20°C° 0 mm 2 mps 674 mmHg 42%
    21:00 +18°C° 0 mm 2 mps 674 mmHg 45%
    22:00 +18°C° 0 mm 2 mps 674 mmHg 46%
    23:00 +17°C° 0 mm 2 mps 674 mmHg 48%

    Tomorrow, 6 June, Saturday

    Time Temperature Precipitation Wind Pressure Humidity
    00:00 +16°C° 0 mm 2 mps 674 mmHg 50%
    01:00 +16°C° 0 mm 2 mps 674 mmHg 51%
    02:00 +15°C° 0 mm 2 mps 674 mmHg 52%
    03:00 +15°C° 0 mm 2 mps 674 mmHg 53%
    04:00 +16°C° 0 mm 1 mps 674 mmHg 53%
    05:00 +18°C° 0 mm 1 mps 675 mmHg 53%
    06:00 +18°C° 0 mm 1 mps 675 mmHg 53%
    07:00 +20°C° 0 mm 1 mps 675 mmHg 49%
    08:00 +22°C° 0 mm 1 mps 676 mmHg 44%
    09:00 +24°C° 0 mm 1 mps 676 mmHg 39%
    10:00 +25°C° 0.1 mm 1 mps 676 mmHg 36%
    11:00 +26°C° 0.1 mm 1 mps 676 mmHg 33%
    12:00 +27°C° 0.1 mm 2 mps 676 mmHg 31%
    13:00 +27°C° 0.3 mm 2 mps 675 mmHg 30%
    14:00 +28°C° 0.3 mm 2 mps 675 mmHg 29%
    15:00 +28°C° 0.3 mm 2 mps 675 mmHg 28%
    16:00 +27°C° 0 mm 3 mps 675 mmHg 32%
    17:00 +26°C° 0 mm 4 mps 675 mmHg 37%
    18:00 +25°C° 0 mm 4 mps 674 mmHg 42%
    19:00 +22°C° 0 mm 4 mps 675 mmHg 44%
    20:00 +21°C° 0 mm 4 mps 675 mmHg 47%
    21:00 +19°C° 0 mm 4 mps 675 mmHg 49%
    22:00 +18°C° 0 mm 3 mps 675 mmHg 47%
    23:00 +17°C° 0 mm 3 mps 675 mmHg 45%

    Day after tomorrow, 7 June, Sunday

    Time Temperature Precipitation Wind Pressure Humidity
    00:00 +16°C° 0 mm 2 mps 674 mmHg 43%
    01:00 +16°C° 0 mm 2 mps 674 mmHg 44%
    02:00 +15°C° 0 mm 2 mps 674 mmHg 45%
    03:00 +14°C° 0 mm 1 mps 674 mmHg 46%
    04:00 +15°C° 0 mm 1 mps 674 mmHg 47%
    05:00 +16°C° 0 mm 1 mps 674 mmHg 47%
    06:00 +18°C° 0 mm 1 mps 674 mmHg 48%
    07:00 +20°C° 0 mm 1 mps 675 mmHg 44%
    08:00 +22°C° 0 mm 1 mps 675 mmHg 40%
    09:00 +24°C° 0 mm 1 mps 675 mmHg 36%
    10:00 +25°C° 0 mm 1 mps 675 mmHg 35%
    11:00 +26°C° 0 mm 2 mps 675 mmHg 33%
    12:00 +27°C° 0 mm 2 mps 675 mmHg 31%
    13:00 +28°C° 0 mm 2 mps 675 mmHg 30%
    14:00 +28°C° 0 mm 2 mps 674 mmHg 29%
    15:00 +29°C° 0 mm 2 mps 674 mmHg 28%
    16:00 +29°C° 0 mm 1 mps 674 mmHg 31%
    17:00 +28°C° 0 mm 1 mps 674 mmHg 34%
    18:00 +28°C° 0 mm 1 mps 674 mmHg 38%
    19:00 +26°C° 0 mm 1 mps 673 mmHg 43%
    20:00 +23°C° 0 mm 2 mps 673 mmHg 49%
    21:00 +20°C° 0 mm 2 mps 673 mmHg 55%
    22:00 +19°C° 0 mm 2 mps 673 mmHg 56%
    23:00 +19°C° 0 mm 2 mps 673 mmHg 57%

    8 June, Monday

    Time Temperature Precipitation Wind Pressure Humidity
    00:00 +18°C° 0 mm 2 mps 673 mmHg 58%
    01:00 +18°C° 0 mm 2 mps 672 mmHg 59%
    02:00 +17°C° 0 mm 2 mps 672 mmHg 60%
    03:00 +17°C° 0 mm 2 mps 672 mmHg 61%
    04:00 +19°C° 0 mm 1 mps 672 mmHg 60%
    05:00 +20°C° 0 mm 1 mps 672 mmHg 60%
    06:00 +20°C° 0 mm 1 mps 672 mmHg 60%
    07:00 +22°C° 0 mm 1 mps 673 mmHg 55%
    08:00 +24°C° 0 mm 1 mps 673 mmHg 50%
    09:00 +25°C° 0 mm 2 mps 673 mmHg 44%
    10:00 +27°C° 0 mm 2 mps 673 mmHg 41%
    11:00 +28°C° 0 mm 2 mps 673 mmHg 38%
    12:00 +29°C° 0 mm 2 mps 673 mmHg 35%
    13:00 +30°C° 0 mm 2 mps 672 mmHg 33%
    14:00 +30°C° 0 mm 2 mps 672 mmHg 31%
    15:00 +31°C° 0 mm 1 mps 672 mmHg 29%
    16:00 +30°C° 0 mm 1 mps 672 mmHg 32%
    17:00 +30°C° 0 mm 1 mps 672 mmHg 35%
    18:00 +29°C° 0 mm 1 mps 672 mmHg 38%
    19:00 +27°C° 0 mm 2 mps 672 mmHg 43%
    20:00 +25°C° 0 mm 2 mps 671 mmHg 47%
    21:00 +22°C° 0 mm 3 mps 671 mmHg 52%
    22:00 +21°C° 0 mm 3 mps 671 mmHg 53%
    23:00 +20°C° 0 mm 2 mps 671 mmHg 55%

    9 June, Tuesday

    Time Temperature Precipitation Wind Pressure Humidity
    00:00 +19°C° 0 mm 2 mps 671 mmHg 56%
    01:00 +19°C° 0 mm 2 mps 671 mmHg 57%
    02:00 +19°C° 0 mm 2 mps 671 mmHg 59%
    03:00 +18°C° 0 mm 2 mps 671 mmHg 61%
    04:00 +19°C° 0 mm 2 mps 671 mmHg 61%
    05:00 +21°C° 0 mm 1 mps 671 mmHg 60%
    06:00 +21°C° 0 mm 1 mps 672 mmHg 60%
    07:00 +23°C° 0 mm 1 mps 672 mmHg 55%
    08:00 +25°C° 0 mm 1 mps 672 mmHg 49%
    09:00 +27°C° 0 mm 1 mps 672 mmHg 44%
    10:00 +28°C° 0.2 mm 1 mps 673 mmHg 40%
    11:00 +29°C° 0.2 mm 1 mps 673 mmHg 36%
    12:00 +31°C° 0.2 mm 1 mps 673 mmHg 32%
    13:00 +31°C° 0.1 mm 2 mps 673 mmHg 31%
    14:00 +32°C° 0.1 mm 2 mps 673 mmHg 30%
    15:00 +32°C° 0.1 mm 2 mps 672 mmHg 29%
    16:00 +31°C° 0.2 mm 3 mps 672 mmHg 35%
    17:00 +29°C° 0.2 mm 3 mps 673 mmHg 41%
    18:00 +28°C° 0.2 mm 3 mps 673 mmHg 47%
    19:00 +26°C° 0.4 mm 3 mps 673 mmHg 54%
    20:00 +23°C° 0.4 mm 2 mps 673 mmHg 61%
    21:00 +20°C° 0.4 mm 2 mps 673 mmHg 69%
    22:00 +19°C° 0.5 mm 2 mps 673 mmHg 70%
    23:00 +20°C° 0.5 mm 1 mps 673 mmHg 72%

    10 June, Wednesday

    Time Temperature Precipitation Wind Pressure Humidity
    00:00 +19°C° 0.5 mm 1 mps 673 mmHg 74%
    01:00 +19°C° 0.3 mm 1 mps 672 mmHg 74%
    02:00 +19°C° 0.3 mm 1 mps 672 mmHg 74%
    03:00 +18°C° 0.3 mm 1 mps 672 mmHg 75%
    04:00 +19°C° 0 mm 1 mps 672 mmHg 73%
    05:00 +20°C° 0 mm 1 mps 672 mmHg 70%
    06:00 +20°C° 0 mm 1 mps 673 mmHg 68%
    07:00 +22°C° 0.1 mm 1 mps 673 mmHg 63%
    08:00 +23°C° 0.1 mm 1 mps 673 mmHg 58%
    09:00 +25°C° 0.1 mm 2 mps 673 mmHg 52%
    10:00 +26°C° 0.3 mm 2 mps 673 mmHg 48%
    11:00 +27°C° 0.3 mm 2 mps 674 mmHg 44%
    12:00 +29°C° 0.3 mm 2 mps 674 mmHg 40%
    13:00 +29°C° 0.2 mm 1 mps 673 mmHg 38%
    14:00 +30°C° 0.2 mm 1 mps 673 mmHg 36%
    15:00 +31°C° 0.2 mm 1 mps 673 mmHg 33%
    16:00 +30°C° 0.1 mm 1 mps 673 mmHg 37%
    17:00 +29°C° 0.1 mm 2 mps 673 mmHg 40%
    18:00 +29°C° 0.1 mm 2 mps 673 mmHg 43%
    19:00 +27°C° 0.1 mm 3 mps 673 mmHg 47%
    20:00 +25°C° 0.1 mm 3 mps 673 mmHg 51%
    21:00 +22°C° 0.1 mm 3 mps 673 mmHg 55%
    22:00 +21°C° 0.4 mm 3 mps 673 mmHg 58%
    23:00 +20°C° 0.4 mm 2 mps 673 mmHg 62%
    Show more